www.pogodaiklimat.ru

Погода и климат >> Архив погоды >> Сенегал >> Дакар


АРХИВ ПОГОДЫ в Дакаре

Время (UTC), дата Ветер
(напр.,м/с)
 
Видим.   Явления Облачность Т
(С)
Тd
(С)
f
(%)
Тe
(С)
Тes
(С)
Комфортность P
(гПа)
Po
(гПа)
Тmin
(С)
Tmax
(С)
R
(мм)
R24
(мм)
S
(см)
12 16.05 С 6 10 км 9/9 300 м
[Sc]
+23.5 +18.0 71 +28 +28 душно 1015.4 1012.1
18 16.05 С 6 10 км 4/4 300 м
[Sc]
+22.3 +17.8 76 +27 +28 душно 1012.6 1009.3 +24.5
00 17.05 С 5 8000 м 8/4 300 м
[Sc Ac trans]
+20.3 +18.2 88 +24 +24 комфорт 1014.0 1010.7
06 17.05 С 5 8000 м 6/3 300 м
[Sc Ac trans]
+20.4 +18.7 90 +24 +24 комфорт 1013.2 1009.9 +19.9
12 17.05 10 км 6/6 300 м
[St Ac trans]
+23.7 +19.5 77 1014.7 1011.4
18 17.05 С 5 10 км 5/5 300 м
[St]
+23.2 +19.0 77 +29 +30 душно 1012.4 1009.1 +24.8
00 18.05 С 4 8000 м 5/5 300 м
[Sc]
+20.8 +19.1 90 +25 +25 комфорт 1014.1 1010.8
06 18.05 С 2 8000 м 6/6 300 м
[Sc Ac trans]
+20.7 +19.6 93 +26 +26 душно 1013.1 1009.8 +20.6
12 18.05 С 4 10 км 5/4 300 м
[Sc Ac trans]
+24.4 +20.4 78 +30 +37 очень
душно
1015.0 1011.7
18 18.05 С 6 10 км 8/4 300 м
[Sc Ac cast]
+22.7 +19.4 82 +29 +29 очень
душно
1013.3 1010.0 +25.4
00 19.05 СЗ 3 8000 м 5/0
[Ac trans]
+21.0 +19.4 91 +26 +26 душно 1015.0 1011.7
06 19.05 С 5 8000 м 1/0
[Ac trans]
+20.7 +19.1 91 +25 +25 комфорт 1012.6 1009.5 +20.5
12 19.05 С 7 10 км 9/3 300 м
[Sc Ci sp]
+24.3 +19.7 76 +30 +33 очень
душно
1014.7 1011.4
18 19.05 С 7 10 км 9/0
[Ac trans Ci sp]
+23.0 +18.3 75 +29 +29 очень
душно
1012.8 1009.5 +24.9
00 20.05 С 6 8000 м 1/0
[Ci sp]
+21.0 +18.6 86 +25 +25 комфорт 1014.6 1011.3
06 20.05 С 5 8000 м 4/0
[Ac trans Ci fib]
+20.5 +18.9 91 +24 +24 комфорт 1013.2 1009.9 +20.3
12 20.05 С 4 10 км 3/0
[Ci sp]
+23.8 +19.5 77 +29 +41 душно 1014.3 1011.0
18 20.05 С 5 10 км 4/3 300 м
[Sc Ci sp]
+23.2 +20.1 83 +30 +31 очень
душно
1012.0 1008.7 +25.4
00 21.05 С 2 8000 м ясно +20.9 +19.7 93 +26 +26 душно 1014.0 1010.7
06 21.05 С 3 8000 м ясно +20.4 +19.5 95 +25 +25 комфорт 1012.3 1009.0 +20.2
12 21.05 С 5 10 км ясно +22.5 +20.3 87 +29 +39 очень
душно
1013.1 1009.8
18 21.05 СЗ 5 10 км ясно +23.8 +20.1 80 +29 +31 душно 1010.8 1007.5 +25.7
00 22.05 С 3 8000 м ясно +21.2 +19.8 92 +26 +26 душно 1013.0 1009.7
06 22.05 С 5 8000 м ясно +22.0 +19.4 85 +27 +27 душно 1012.1 1008.8 +20.4
12 22.05 С 7 10 км ясно +24.7 +20.5 77 +31 +36 очень
душно
1013.8 1010.5
18 22.05 С 7 10 км ясно +23.0 +19.3 80 +29 +30 очень
душно
1012.2 1008.9 +25.4
00 23.05 С 6 8000 м ясно +20.5 +19.2 92 +24 +24 комфорт 1012.8 1009.5
06 23.05 С 4 8000 м ясно +19.8 +19.0 95 +23 +23 комфорт 1011.9 1008.6 +19.6

 

Местоположение метеостанции Дакар (Сенегал): широта 14.73 долгота -17.50 высота над уровнем моря 24 м.

В архиве по умолчанию представлена погода в Дакаре за последнюю неделю. Архивные данные за месяц целиком и за предыдущие месяцы, начиная с января 2011 года, Вы можете получить, выбрав интересующий диапазон дат из раскрывающегося списка и нажав кнопку "Ввод!".


*Определитесь, кто Вы:
робот инопланетянин человек

Внимание! Время в таблицах - всемирное. Для получения местного времени необходимо прибавить поправку, которая равна 0 ч.

Смотрите также архив погоды в соседних городах и на ближайших метеорологических станциях:

Погода в Диурбеле (Сенегал) (137 км)
Погода в Каолаке (Сенегал) (169 км)
Погода в Банжуле (Гамбия) (180 км)
Погода в Банжуле Half-Die (Гамбия) (182 км)
Погода в Сент-Луисе (Сенегал) (185 км)
Погода в Кереване (Гамбия) (205 км)
Погода в Сапу (Гамбия) (213 км)
Погода в Сибаноре (Гамбия) (219 км)
Погода в Женое (Гамбия) (250 км)
Погода в Кауере (Гамбия) (261 км)

Пояснения к столбцам:

Ветер - указаны скорость ветра в м/с - средняя за 10 мин, порывы в срок и между сроками (в фигурных скобках) и направление, откуда дует ветер: С - северный, СВ - северо-восточный, В - восточный, ЮВ - юго-восточный, Ю - южный, ЮЗ - юго-западный, З - западный, СЗ - северо-западный.
Видимость - горизонтальная дальность видимости в метрах или километрах. При видимости от 1 до 10 км при отсутствии осадков обычно наблюдается дымка, при ухудшении видимости до 1 км и менее - туман. В сухую погоду видимость может ухудшаться дымом, пылью или мглою.
Явления - указаны атмосферные явления, наблюдавшиеся в срок или в последний час перед сроком; фигурными скобками обозначены явления, наблюдавшиеся между сроками (за 1-3 часа до срока); квадратными скобками обозначены град или гололедные отложения с указанием их диаметра в мм.
Облачность - указаны через наклонную черту общая и нижняя облачность в баллах и высота нижней границы облаков в метрах; квадратными скобками обозначены формы облаков: Ci - перистые, Cs - перисто-слоистые, Cc - перисто-кучевые, Ac - высококучевые, As - высокослоистые, Sc - слоисто-кучевые, Ns - слоисто-дождевые, Cu - кучевые, Cb - кучево-дождевые. Подробнее классификацию облаков см. в Атласе облаков (PDF).
T - Температура воздуха - температура, измеренная на высоте 2 м над землей.
Td - Температура точки росы - температура, при понижении до которой содержащийся в воздухе водяной пар достигнет насыщения.
f - Относительная влажность воздуха - влажноcть воздуха, измеренная на высоте 2 м над землей.
Te - Эффективная температура - температура, которую ощущает одетый по сезону человек в тени. Характеристика душности погоды. При расчете учитывается влияние влажности воздуха и скорости ветра на теплоощущения человека.
Tes - Эффективная температура на солнце - температура, которую ощущает человек, с поправкой на солнечный нагрев. Характеристика знойности погоды. Зависит от высоты солнца над горизонтом, облачности и скорости ветра. Ночью, в пасмурную погоду, а также при ветре 12 м/с и более поправка равна нулю.
P - Атмосферное давление - приведенное к уровню моря атмосферное давление.
Po - Атмосферное давление - измеренное на уровне метеостанции атмосферное давление.
Tmin - Минимальная температура - минимум температуры воздуха на высоте 2 м над землей.
Tmax - Максимальная температура - максимум температуры воздуха на высоте 2 м над землей.
R - Количество осадков - Количество выпавших осадков за период времени, мм. При наведении курсора мыши на число - период времени, за который выпало указанное количество осадков.
R24 - Количество осадков - Количество выпавших осадков за 24 часа, мм.
S - Снежный покров - Высота снежного покрова, см. При наведении курсора мыши на число - состояние снежного покрова и степень покрытия местности в баллах.